Weather History for Bonaire, Bonaire

Change the Weather History Date:

Thursday, November 29, 2012

  Actual Average Record
Temperature  
Mean Temperature 82 °F -  
Max Temperature 87 °F 85 °F 89 °F (1997)
Min Temperature 77 °F 77 °F 75 °F (2011)
Cooling Degree Days 17    
Growing Degree Days 32 (Base 50)    
Moisture  
Dew Point 75 °F    
Average Humidity 79    
Maximum Humidity 94    
Minimum Humidity 66    
Precipitation  
Precipitation 0.04 in - - ()
Sea Level Pressure  
Sea Level Pressure 29.91 in    
Wind  
Wind Speed 7 mph ()    
Max Wind Speed 12 mph    
Max Gust Speed -    
Visibility 9.7 miles    
Events Rain    
Averages and records for this station are not official NWS values.
T = Trace of Precipitation, MM = Missing Value Source: Averaged Metar Reports

Daily Weather History Graph

Daily Weather History Graph

Search for Another Location

Airport:

Trip Planner

Search our weather history database for the weather conditions in past years. The results will help you decide how hot, cold, wet, or windy it might be!

Date:

Astronomy

Nov. 29, 2012 Rise Set
Actual Time 6:37 AM AST 6:05 PM AST
Civil Twilight 6:14 AM AST 6:28 PM AST
Nautical Twilight 5:48 AM AST 6:54 PM AST
Astronomical Twilight 5:22 AM AST 7:20 PM AST
Moon 7:06 PM AST (11/29) 7:20 AM AST (11/29)
Length of Visible Light 12h 13m
Length of Day
11h 28m
Full, 99% of the Moon is Illuminated
Nov 29
Full
Dec 6
Last Quarter
Dec 13
New
Dec 20
First Quarter
Dec 28
Full

Hourly Weather History & Observations

Time (AST) Temp. Heat Index Dew Point Humidity Pressure Visibility Wind Dir Wind Speed Gust Speed Precip Events Conditions
2:00 AM 80.6 °F 84.6 °F 71.6 °F 74% 29.89 in - ENE 5.8 mph - N/A   Unknown
3:00 AM 78.8 °F - 73.4 °F 83% 29.86 in - ENE 5.8 mph - N/A   Unknown
8:00 AM 80 °F - 76 °F 84% 29.95 in 19 mi ENE 8.1 mph - -   Partly Cloudy
8:00 AM 80.6 °F 86.2 °F 75.2 °F 84% 29.95 in 6.2 mi ENE 8.1 mph - N/A   Scattered Clouds
9:00 AM 78.8 °F - 73.4 °F 83% 29.95 in 6.2 mi East 9.2 mph - N/A   Scattered Clouds
10:00 AM 84.2 °F 92.3 °F 75.2 °F 74% 29.95 in 6.2 mi East 8.1 mph - N/A   Mostly Cloudy
11:00 AM 79 °F - 76 °F 86% 29.98 in 19 mi East 8.1 mph - -  
11:00 AM 78.8 °F - 75.2 °F 89% 29.95 in 6.2 mi ESE 8.1 mph - N/A Rain Rain
12:00 PM 84.2 °F 92.3 °F 75.2 °F 74% 29.92 in - North - - N/A   Unknown
1:00 PM 87.8 °F 97.6 °F 75.2 °F 66% 29.92 in - ESE 10.4 mph - N/A   Unknown
2:00 PM 86.0 °F 93.4 °F 73.4 °F 66% 29.89 in - East 11.5 mph - N/A   Unknown
3:00 PM 87.8 °F 97.6 °F 75.2 °F 66% 29.86 in - ESE 10.4 mph - N/A   Unknown
4:00 PM 84.2 °F 90.9 °F 73.4 °F 70% 29.86 in 6.2 mi East 11.5 mph - N/A   Scattered Clouds
5:00 PM 86 °F - 80 °F 79% 29.87 in 19 mi East 10.4 mph - -   Partly Cloudy
5:00 PM 86.0 °F 95.1 °F 75.2 °F 70% 29.86 in 6.2 mi East 9.2 mph - N/A   Scattered Clouds
6:00 PM 82.4 °F 89.5 °F 75.2 °F 79% 29.86 in 6.2 mi East 11.5 mph - N/A   Scattered Clouds
7:00 PM 80.6 °F 85.4 °F 73.4 °F 79% 29.89 in - East 6.9 mph - N/A   Unknown
8:00 PM 80.6 °F 86.2 °F 75.2 °F 84% 29.89 in - East 4.6 mph - N/A   Unknown
9:00 PM 80.6 °F 86.2 °F 75.2 °F 84% 29.92 in - East 4.6 mph - N/A   Unknown
10:00 PM 78.8 °F - 73.4 °F 83% 29.95 in - North - - N/A Rain Rain
11:00 PM 77 °F - 74 °F 90%  in 6 mi SE 3.5 mph - -   Clear
11:00 PM 77.0 °F - 75.2 °F 94% 29.95 in - North - - N/A   Unknown